TimeCST,TemperatureF,Dew PointF,Humidity,Sea Level PressureIn,VisibilityMPH,Wind Direction,Wind SpeedMPH,Gust SpeedMPH,PrecipitationIn,Events,Conditions,WindDirDegrees,DateUTC
12:14 AM,8.6,3.2,79,29.93,10.0,SSW,8.1,-,N/A,,Overcast,200,2013-01-02 06:14:00
12:53 AM,10.9,7.0,84,29.99,10.0,South,8.1,-,N/A,,Overcast,190,2013-01-02 06:53:00
1:53 AM,12.9,9.0,84,29.98,9.0,SSW,5.8,-,0.00,Snow,Light Snow,210,2013-01-02 07:53:00
2:37 AM,15.8,12.2,86,29.91,10.0,South,4.6,-,0.00,,Overcast,190,2013-01-02 08:37:00
2:53 AM,16.0,12.0,84,29.99,10.0,SSW,4.6,-,0.00,,Overcast,200,2013-01-02 08:53:00
3:53 AM,26.1,21.9,84,29.97,10.0,WNW,13.8,-,N/A,,Overcast,290,2013-01-02 09:53:00
4:37 AM,28.4,23.0,80,29.90,10.0,WNW,12.7,-,N/A,,Overcast,290,2013-01-02 10:37:00
4:53 AM,28.9,23.0,78,29.97,10.0,WNW,13.8,-,N/A,,Overcast,290,2013-01-02 10:53:00
5:53 AM,28.4,24.8,86,29.91,10.0,WNW,11.5,-,N/A,,Overcast,290,2013-01-02 11:53:00
6:26 AM,28.4,23.0,80,29.91,10.0,WNW,17.3,-,N/A,,Overcast,290,2013-01-02 12:26:00
6:53 AM,28.9,23.0,78,29.99,10.0,WNW,15.0,-,N/A,,Overcast,300,2013-01-02 12:53:00
7:53 AM,28.0,21.9,78,30.00,10.0,WNW,16.1,-,N/A,,Overcast,290,2013-01-02 13:53:00
8:53 AM,30.2,24.8,80,29.94,10.0,WNW,13.8,-,N/A,,Overcast,290,2013-01-02 14:53:00
9:53 AM,30.0,24.1,79,30.02,10.0,WNW,15.0,-,N/A,,Overcast,290,2013-01-02 15:53:00
10:53 AM,30.9,24.1,76,30.05,10.0,WNW,15.0,-,N/A,,Mostly Cloudy,300,2013-01-02 16:53:00
11:38 AM,32.0,24.8,75,29.98,10.0,NW,11.5,-,N/A,,Overcast,310,2013-01-02 17:38:00
11:53 AM,32.0,25.0,75,30.05,10.0,WNW,12.7,-,N/A,,Overcast,300,2013-01-02 17:53:00
12:35 PM,30.2,24.8,80,29.98,10.0,NW,15.0,-,N/A,,Overcast,310,2013-01-02 18:35:00
12:53 PM,32.0,24.1,73,30.04,10.0,NW,16.1,-,N/A,,Overcast,310,2013-01-02 18:53:00
1:53 PM,32.0,25.0,75,30.05,10.0,WNW,15.0,-,N/A,,Overcast,300,2013-01-02 19:53:00
2:53 PM,32.0,25.0,75,30.05,10.0,WNW,11.5,-,N/A,,Scattered Clouds,290,2013-01-02 20:53:00
3:53 PM,32.0,24.1,73,30.07,10.0,NW,13.8,-,N/A,,Overcast,310,2013-01-02 21:53:00
4:11 PM,32.0,24.8,75,30.03,10.0,NW,15.0,-,N/A,,Overcast,310,2013-01-02 22:11:00
4:53 PM,30.0,23.0,75,30.09,10.0,NW,13.8,-,N/A,,Overcast,320,2013-01-02 22:53:00
5:53 PM,27.0,21.0,78,30.13,10.0,NNE,15.0,-,N/A,,Overcast,20,2013-01-02 23:53:00
6:00 PM,26.6,21.2,80,30.08,10.0,NNE,13.8,-,N/A,,Overcast,20,2013-01-03 00:00:00
6:51 PM,24.8,19.4,80,30.11,9.0,North,15.0,-,N/A,,Overcast,360,2013-01-03 00:51:00
6:53 PM,24.1,19.0,81,30.17,9.0,North,16.1,-,N/A,,Overcast,10,2013-01-03 00:53:00
7:51 PM,21.2,15.8,80,30.16,10.0,North,19.6,-,N/A,,Overcast,350,2013-01-03 01:51:00
7:53 PM,21.9,15.1,75,30.22,10.0,North,18.4,-,N/A,,Overcast,350,2013-01-03 01:53:00
8:10 PM,19.4,14.0,80,30.18,10.0,North,16.1,-,N/A,,Overcast,10,2013-01-03 02:10:00
8:53 PM,18.0,10.9,74,30.26,10.0,North,18.4,-,N/A,,Overcast,350,2013-01-03 02:53:00
9:53 PM,15.8,6.8,68,30.22,10.0,North,12.7,-,N/A,,Overcast,10,2013-01-03 03:53:00
10:53 PM,12.9,6.1,74,30.32,10.0,North,11.5,-,N/A,,Mostly Cloudy,10,2013-01-03 04:53:00
11:30 PM,12.2,5.0,73,30.27,10.0,North,10.4,-,N/A,,Partly Cloudy,350,2013-01-03 05:30:00
11:53 PM,10.0,3.9,76,30.34,10.0,NNW,8.1,-,N/A,,Partly Cloudy,330,2013-01-03 05:53:00